Starlink 34412

operational
NORAD ID: 66132 Int'l Des: 2025-237 Owner: SPXS Country: US Constellation: starlink
LEOCIRCULAR

About Starlink 34412

Description loading...

Live Position

Loading 3D Globe...

Upcoming Passes

Altitude History

Altitude vs Time

uPlot chart will show altitude changes over time

Two-Line Element Set

1 66132U 25237U 26019.33335648 -.00003247 00000-0 -71250-4 0 9997
2 66132 53.1582 270.2972 0001309 72.4088 297.2859 15.39608000 5914
Epoch: Jan 19, 2026 • Age: 13 hours

Current Status

Altitude 451.1 km
Velocity 7.65 km/s
Sub-Earth Point 45.04°N, 113.55°W
Launch Date Oct 22, 2025
Age 0.2 years
Type internet

Technical Details

Classification Payload
Mass 575.00 kg
Dry Mass 530.00 kg
Total Mass 575.00 kg
Length 0.30 m
Diameter 4.10 m
Span 29.00 m
Shape Box + pan
Manufacturer SPXS
Bus Type Starlink V2MO
Phase Status In Orbit
Owner/State SPXS/US

Large Constellations

Loading constellations...